Wind_Speed
11 9 7 5 3 2 2 4 6 9 10 13 15 17 18 19 21 23 24 24 24 25 25 26 26 26 26 26 26 26 26 26 25 24 23 22 22 21
11 9 7 6 4 3 3 4 6 8 10 12 14 16 18 19 20 22 24 24 25 26 26 26 26 26 26 26 26 26 26 26 26 26 25 25 24 24
12 10 8 7 6 5 4 4 6 7 9 11 13 15 17 19 21 22 24 24 25 26 27 27 26 26 26 27 27 27 27 27 27 27 27 26 26 26
13 12 10 9 8 7 6 7 7 8 10 11 13 15 17 19 21 22 24 25 25 26 27 27 27 27 27 27 27 28 28 28 27 28 28 28 28 28
14 14 13 11 10 9 9 8 9 10 11 12 14 15 17 19 20 22 24 25 25 26 27 27 28 28 27 28 29 29 29 29 29 29 29 29 29 29
16 16 15 14 13 13 12 12 11 12 13 14 15 16 18 19 20 22 24 25 25 25 27 28 29 29 29 29 29 30 30 30 30 30 30 30 31 31
19 19 18 16 16 15 15 15 15 15 15 16 17 18 19 21 21 22 24 26 26 26 27 29 29 30 31 31 31 31 31 30 30 31 31 31 32 32
22 22 21 20 19 18 18 17 18 18 18 19 19 20 21 22 23 24 25 26 27 28 28 29 30 30 31 31 32 32 32 32 32 32 32 32 32 32
25 24 24 24 23 22 22 21 21 21 21 22 22 23 23 24 25 26 26 28 28 29 30 30 31 31 32 32 33 33 33 33 33 33 33 33 33 33
28 27 26 26 26 26 25 26 26 25 24 24 25 26 26 27 27 28 29 29 29 30 31 31 32 32 33 33 33 34 34 34 34 34 34 34 34 34
31 31 30 30 30 30 29 29 29 30 29 28 28 28 29 30 30 31 32 32 32 33 33 33 33 33 34 34 34 34 34 34 35 34 34 35 35 35
34 34 34 34 34 34 33 33 33 33 33 32 32 32 32 33 34 34 34 34 34 35 36 35 35 35 35 35 35 35 36 35 35 35 35 36 36 36
37 37 37 37 38 38 37 37 36 37 37 36 36 36 36 36 36 37 37 37 37 36 37 38 37 37 36 36 36 37 37 37 37 37 37 36 36 36
39 39 40 41 41 41 41 41 41 41 40 40 39 39 39 40 40 40 40 40 40 39 40 40 39 39 39 39 39 39 39 39 39 38 38 38 37 37
43 43 43 44 44 44 45 45 44 45 44 44 43 43 42 43 44 44 42 42 42 42 43 42 42 41 42 41 41 41 41 40 40 40 40 39 38 38
47 47 47 47 47 47 47 48 48 48 47 47 47 46 45 45 45 46 45 45 44 44 44 44 44 43 43 43 43 42 43 43 42 41 41 40 39 38
51 51 52 51 51 49 49 50 50 51 50 50 49 48 47 48 48 48 48 47 46 45 45 45 45 45 44 44 43 43 43 42 41 41 41 41 39 38
55 55 55 55 53 52 51 52 53 53 52 52 51 51 50 50 50 50 49 49 48 47 46 46 46 46 46 46 44 43 42 42 41 41 40 40 39 39
58 57 57 57 55 54 53 53 54 54 54 54 53 53 53 52 52 52 51 51 50 49 48 47 47 47 47 46 44 44 43 42 42 41 41 40 39 39
61 59 58 58 56 54 54 55 55 55 55 54 54 54 54 54 54 54 53 53 52 51 50 49 48 47 46 45 45 45 44 43 43 42 42 41 40 39
62 60 59 58 57 56 55 56 55 54 54 53 53 53 53 53 53 53 53 53 52 51 50 49 48 47 47 47 46 45 44 43 42 42 41 41 40 39
63 61 59 59 58 57 55 55 54 53 52 52 52 52 52 53 53 51 51 52 52 50 49 49 48 47 47 46 45 44 43 43 42 42 41 40 39 39
63 62 60 59 58 56 54 52 52 51 50 51 50 50 50 51 52 51 49 50 50 49 48 48 48 48 46 46 45 45 44 43 42 42 41 40 40 40
Wind_Direction
19 18 15 14 9 342 251 229 224 221 222 222 220 217 218 217 219 220 219 221 223 224 224 224 224 224 226 227 228 229 229 229 230 232 233 234 236 237
13 12 8 5 357 335 285 250 239 232 228 225 223 221 221 219 221 221 221 223 225 225 226 227 227 227 227 228 230 232 232 232 233 234 234 235 237 239
3 3 357 347 335 322 302 273 250 239 234 229 228 227 227 227 226 224 223 225 225 226 227 228 229 228 228 230 231 233 233 234 234 235 237 238 239 241
354 351 347 337 323 313 299 283 267 255 245 238 234 232 231 231 230 229 228 228 228 228 229 228 228 228 229 232 233 234 235 235 235 236 239 240 242 243
343 341 338 331 320 310 300 290 277 266 258 249 241 237 235 234 233 231 230 229 229 230 230 230 229 228 230 233 234 235 236 237 237 238 240 242 244 245
334 331 328 323 317 308 300 292 284 274 264 256 250 246 241 238 236 233 231 230 232 233 231 230 231 231 232 233 234 235 237 238 238 239 241 243 244 246
326 324 322 316 311 307 301 294 286 279 271 262 256 252 249 245 242 238 235 234 234 235 233 232 232 233 234 236 236 237 237 238 239 240 241 242 245 247
318 316 314 311 307 302 298 293 287 279 273 267 261 255 253 251 248 244 240 236 237 236 236 236 235 235 236 237 238 238 239 240 241 241 241 242 245 247
312 309 306 305 302 298 295 292 288 282 274 269 263 258 254 252 251 247 244 240 239 238 237 237 237 237 238 239 239 239 240 241 242 242 243 245 247 247
307 304 301 298 297 295 291 289 287 283 277 271 266 261 257 254 252 250 248 245 242 241 239 238 238 239 240 240 240 240 241 242 242 243 244 245 246 248
303 300 297 294 292 291 289 287 284 282 278 272 268 264 261 256 253 252 250 247 244 242 241 239 240 241 241 241 241 242 242 242 243 243 244 246 247 249
302 298 295 292 290 288 286 284 283 280 277 272 268 266 263 259 255 254 252 249 246 244 243 243 242 242 242 242 242 242 242 243 244 244 245 247 248 249
301 297 293 290 288 286 284 283 281 279 277 273 268 265 263 260 257 255 254 251 247 246 244 244 244 244 243 243 243 243 243 244 245 244 245 247 248 249
299 296 293 290 288 285 282 281 280 278 275 272 269 265 262 260 259 257 255 252 250 247 246 245 245 244 244 244 244 244 244 245 246 246 247 247 249 250
298 295 292 290 288 285 282 280 278 277 275 272 269 265 261 259 258 256 254 253 251 249 247 246 245 244 245 245 245 244 244 245 246 246 246 246 248 249
298 295 293 291 288 284 281 279 277 276 274 272 269 265 261 258 256 255 254 252 251 249 247 246 245 245 245 245 245 245 245 245 245 246 245 246 247 248
297 295 293 292 289 284 280 277 275 274 273 270 268 265 261 258 256 254 252 251 250 249 247 246 245 245 245 245 245 245 244 243 244 245 245 245 245 247
298 295 294 292 289 283 279 276 274 272 271 269 266 263 260 258 255 253 251 250 250 249 247 246 245 244 244 244 243 243 243 242 242 243 244 245 246 247
298 295 293 292 288 283 279 275 273 271 269 268 264 260 257 256 253 251 249 248 248 248 247 246 245 244 243 243 242 242 242 242 242 243 244 245 246 246
298 295 293 291 287 283 280 275 273 272 269 266 262 258 255 253 252 250 249 247 246 246 246 245 245 244 243 242 241 240 241 241 242 243 244 244 245 246
298 295 293 291 288 283 280 276 273 271 268 264 261 256 254 251 250 249 248 246 245 245 244 244 243 243 241 240 239 239 240 240 241 241 242 242 244 245
298 295 292 290 288 284 281 277 272 270 268 264 261 257 252 249 247 247 246 244 243 243 242 241 240 240 240 239 239 238 239 239 240 240 241 242 243 244
297 294 292 290 288 285 281 276 272 269 267 263 259 255 251 247 245 245 244 241 240 239 239 238 237 238 239 238 237 237 236 238 239 240 240 241 243 245
Height
5811 5809 5808 5808 5807 5807 5807 5808 5809 5809 5811 5813 5814 5817 5819 5821 5824 5827 5830 5833 5836 5839 5841 5845 5848 5850 5853 5856 5859 5861 5864 5867 5869 5872 5874 5877 5879 5880
5811 5810 5809 5808 5807 5807 5806 5806 5807 5808 5809 5810 5812 5813 5815 5817 5820 5822 5825 5828 5831 5834 5837 5840 5842 5845 5848 5851 5854 5856 5859 5861 5864 5867 5869 5872 5874 5875
5811 5810 5808 5807 5806 5806 5805 5805 5805 5806 5807 5808 5809 5810 5812 5814 5816 5818 5821 5823 5826 5829 5831 5834 5837 5840 5843 5846 5848 5851 5853 5856 5859 5861 5864 5866 5868 5870
5811 5809 5808 5806 5805 5805 5804 5804 5804 5804 5805 5805 5806 5807 5808 5810 5811 5814 5816 5818 5821 5823 5826 5829 5831 5834 5837 5840 5842 5845 5848 5850 5852 5855 5858 5860 5862 5864
5810 5808 5806 5805 5804 5803 5802 5802 5801 5801 5802 5802 5803 5803 5804 5806 5807 5809 5811 5813 5815 5818 5820 5823 5825 5828 5831 5834 5836 5839 5841 5844 5846 5849 5851 5853 5855 5857
5808 5806 5804 5803 5802 5801 5800 5799 5798 5798 5798 5799 5799 5800 5800 5801 5803 5804 5806 5807 5810 5812 5814 5816 5819 5822 5824 5827 5830 5832 5834 5837 5839 5841 5844 5846 5848 5849
5805 5803 5801 5800 5798 5797 5796 5795 5795 5794 5794 5794 5795 5795 5796 5797 5797 5798 5800 5802 5804 5806 5808 5810 5812 5815 5817 5820 5822 5825 5827 5829 5832 5834 5836 5838 5840 5842
5801 5799 5797 5796 5794 5793 5792 5791 5790 5790 5789 5789 5789 5790 5790 5791 5791 5792 5793 5795 5797 5799 5800 5803 5805 5807 5810 5812 5814 5817 5819 5821 5824 5826 5828 5830 5832 5834
5795 5793 5791 5790 5788 5787 5786 5785 5784 5784 5783 5783 5783 5783 5784 5784 5785 5786 5787 5788 5790 5791 5793 5795 5797 5800 5802 5804 5806 5809 5811 5813 5815 5817 5820 5822 5823 5825
5788 5786 5784 5782 5781 5779 5779 5778 5777 5776 5776 5775 5776 5776 5776 5777 5777 5778 5779 5780 5782 5783 5785 5787 5789 5791 5793 5795 5798 5800 5802 5804 5806 5808 5811 5813 5815 5816
5778 5776 5774 5773 5771 5770 5769 5769 5768 5767 5766 5766 5767 5767 5767 5768 5768 5769 5770 5772 5773 5775 5776 5778 5780 5782 5784 5786 5788 5790 5793 5795 5797 5799 5801 5803 5805 5807
5767 5764 5763 5761 5760 5759 5759 5758 5757 5757 5756 5756 5756 5757 5757 5758 5759 5760 5761 5762 5763 5765 5767 5769 5770 5772 5775 5777 5778 5781 5783 5785 5787 5790 5792 5794 5795 5797
5755 5752 5750 5748 5747 5746 5746 5746 5745 5745 5744 5744 5744 5745 5745 5746 5747 5748 5749 5751 5753 5755 5757 5758 5760 5762 5764 5767 5768 5771 5773 5775 5777 5779 5781 5784 5785 5787
5743 5740 5737 5735 5733 5732 5731 5731 5731 5731 5731 5731 5731 5732 5733 5734 5735 5736 5737 5739 5741 5743 5745 5747 5749 5751 5753 5756 5758 5760 5762 5764 5767 5769 5771 5773 5775 5777
5729 5726 5723 5720 5718 5717 5717 5716 5716 5715 5716 5716 5717 5718 5719 5720 5721 5722 5724 5726 5728 5730 5732 5735 5737 5739 5742 5744 5746 5749 5751 5753 5755 5758 5760 5762 5764 5766
5715 5712 5708 5705 5702 5701 5701 5700 5699 5699 5699 5699 5700 5702 5703 5704 5706 5708 5709 5711 5714 5717 5719 5721 5723 5726 5729 5731 5734 5736 5739 5741 5744 5746 5749 5751 5753 5755
5701 5697 5693 5689 5686 5684 5683 5682 5682 5681 5681 5682 5683 5684 5686 5688 5690 5692 5694 5696 5699 5702 5705 5707 5710 5712 5715 5718 5721 5724 5726 5729 5731 5734 5737 5739 5742 5744
5684 5680 5676 5672 5668 5666 5665 5664 5663 5663 5663 5663 5664 5666 5668 5670 5673 5675 5678 5681 5684 5687 5690 5693 5695 5698 5702 5705 5708 5711 5714 5716 5719 5722 5725 5728 5731 5733
5667 5662 5658 5654 5650 5647 5646 5645 5644 5644 5643 5644 5645 5646 5648 5651 5654 5658 5661 5664 5668 5671 5675 5678 5681 5684 5687 5691 5695 5698 5701 5704 5707 5710 5714 5716 5719 5722
5649 5644 5639 5635 5631 5629 5626 5625 5624 5623 5623 5624 5625 5626 5628 5632 5635 5639 5643 5647 5651 5655 5658 5662 5666 5670 5674 5678 5681 5685 5688 5692 5695 5698 5702 5704 5707 5710
5631 5625 5621 5616 5612 5610 5607 5605 5604 5603 5603 5604 5605 5607 5609 5612 5616 5620 5624 5629 5633 5637 5642 5647 5652 5655 5658 5662 5667 5672 5676 5679 5683 5686 5690 5693 5696 5699
5612 5607 5602 5598 5593 5590 5587 5585 5584 5584 5584 5584 5585 5587 5590 5593 5597 5601 5606 5610 5616 5620 5626 5631 5635 5639 5644 5648 5654 5659 5663 5666 5670 5674 5677 5681 5684 5688
5593 5588 5583 5578 5574 5570 5567 5565 5564 5564 5565 5565 5566 5569 5571 5575 5579 5583 5588 5593 5598 5604 5609 5615 5620 5625 5630 5635 5640 5645 5649 5654 5658 5662 5666 5669 5673 5676